Flag for U.S.A. Weather past 2 weeks in Corpus Christi, Texas, U.S.A.

Now
52 °F

Fog.


Feels Like: 49 °F
Forecast: 49 / 56 °F
Wind: 9 mph from North

Location: Corpus Christi International Airport

Current Time: Mar 2, 2015 at 2:51:08 PM

Latest Report: Mar 2, 2015 at 1:51 PM


Visibility: 1 mi

Pressure: 30.21 "Hg

Humidity: 97%

Dew point: 51 °F

Location of Corpus ChristiLocation

Historic Weather in Corpus Christi — Graph

°F

Corpus Christi temperature yesterday

Maximum temperature yesterday: 52 °F (at 2:03 PM)
Minimum temperature yesterday: 47 °F (at 4:51 AM)
Average temperature yesterday: 50 °F

Past Weeks' High & Low Weather Summary

 TemperatureHumidityPressure
High79 °F (Feb 21, 1:51 PM)100% (Mar 1, 5:51 AM)30.41 "Hg (Mar 1, 5:51 AM)
Low32 °F (Feb 18, 6:51 AM)27% (Feb 18, 1:51 PM)29.81 "Hg (Feb 25, 4:51 PM)
Average54 °F80%30.12 "Hg
* Reported Feb 15 12:51 PM — Mar 2 12:51 PM, Corpus Christi, Weather by CustomWeather, © 2015

Note: Actual official high and low records may vary slightly from our data, if they occured in-between our weather recording intervals... More about our weather records

Advertising

Corpus Christi weather history for previous 24 hours

 ConditionsComfort  
Time TempWeatherWind HumidityBarometerVisibility
12:51 PM
Mon, Mar 2
51 °FDrizzle. Fog.8 mph92%30.25 "Hg1 mi
11:51 AM49 °FDrizzle. Fog.9 mph97%30.28 "Hg0 mi
10:51 AM49 °FDrizzle. Fog.10 mph93%30.30 "Hg2 mi
9:51 AM47 °FFog.12 mph97%30.29 "Hg2 mi
8:51 AM47 °FDrizzle. Fog.15 mph93%30.27 "Hg2 mi
7:51 AM47 °FLight rain. Fog.8 mph97%30.26 "Hg1 mi
6:51 AM47 °FDrizzle. Fog.14 mph97%30.24 "Hg2 mi
5:51 AM48 °FFog.12 mph93%30.23 "Hg5 mi
4:51 AM48 °FLight rain. Fog.12 mph93%30.22 "Hg4 mi
3:51 AM48 °FLight rain. Fog.13 mph93%30.23 "Hg4 mi
2:51 AM48 °FLight rain. Fog.15 mph93%30.23 "Hg3 mi
1:51 AM48 °FLight rain. Fog.10 mph96%30.25 "Hg3 mi
12:51 AM49 °FLight rain. Fog.9 mph93%30.25 "Hg2 mi
11:51 PM
Sun, Mar 1
49 °FLight rain. Fog.13 mph93%30.26 "Hg2 mi
10:51 PM49 °FDrizzle. Fog.14 mph93%30.25 "Hg2 mi
9:51 PM50 °FLight rain. Fog.13 mph93%30.25 "Hg2 mi
8:51 PM50 °FDrizzle. Fog.10 mph96%30.23 "Hg1 mi
7:51 PM50 °FDrizzle. Fog.10 mph96%30.21 "Hg1 mi
6:51 PM50 °FDrizzle. Fog.10 mph96%30.18 "Hg1 mi
5:51 PM51 °FFog.13 mph96%30.17 "Hg1 mi
4:51 PM51 °FDrizzle. Fog.10 mph96%30.16 "Hg1 mi
3:51 PM52 °FDrizzle. Fog.8 mph97%30.16 "Hg1 mi
2:51 PM51 °FLight rain. Fog.9 mph96%30.17 "Hg1 mi
2:03 PM52 °FDrizzle. Fog.9 mph97%30.17 "Hg1 mi
Weather by CustomWeather, © 2015

See weather overviewHow to use our weather pages